一网星座-0116星 (ONEWEB-0116 )

导读

ONEWEB-0116是英国OneWeb公司低轨卫星星座的一颗组网卫星,于2021年3月25日发射入轨。OneWeb项目旨在打造近地轨道卫星通信网络,为全球偏远地区、互联网基础设施薄弱区域提供可负担的高速互联网接入服务,该卫星是星座组网进程中的组成部分,助力实现全球卫星互联网覆盖的战略目标,项目获英国政府等多方资本支持推进。

基本信息
目录编号:
48046
目录名称:
ONEWEB-0116
国际标识:
2021-025E
轨道中心:
EARTH
卫星名称:
一网星座-0116星
卫星全名:
一网星座-0116星 (ONEWEB-0116 )
卫星状态:
在轨 (已飞行1907 天)
发射日期:
2021-03-25 UTC
国别 :
英国 (GB)
星等 :
--
轨道信息
数据来源 国际轨道数据
星历时间: 2026-06-14T06:15:06+0800
11小时前
查看轨道信息
半长轴: 7587.91km
偏心率: 0.0001744
轨道倾角: 87.896°
近地点辐角 93.086°
升交点赤经 320.866°
平近点角 267.047°
近地点: 1208.449km
远地点: 1211.097km
周期: 109.633分钟
每日圈数: 13.134682
详细信息
平衡模式:
三轴稳定
覆盖范围:
全球
运营商:
一网卫星公司
运营商所在国:
英国
制造商(研发单位):
一网卫星公司
制造商所在国:
英国
使用方式:
暂无
卫星简介
OneWeb卫星网络由648颗重约125公斤的微型卫星组成,运行在1200公里的轨道上。 每颗卫星都能够提供至少每秒8千兆位的吞吐量,以使用其高吞吐量的Ku频段有效载荷为家庭和移动平台提供互联网接入。该卫星仍在工作。
2D轨道图
3D轨道图
轨道高度分析图
轨道倾角分析图
轨道综合分析图
查看轨道综合分析图